�N����,����,�~����,�C��,���x,�C��,����,���ϕ���,�ő�u�ԕ���,�ő厞����,���˗�,�I�_���x,�n�����x,�ő啗���N��,DTYPE
"23/08/07","00:10",0.0,27.9,79.4,994.8,336.1,0.5,1.4,10.9,0.00,24.0,26.4,"00:07:44",1
"23/08/07","00:20",0.0,27.9,79.8,994.6,343.9,0.5,1.2,343.9,0.00,24.1,26.4,"00:18:48",1
"23/08/07","00:30",0.0,27.7,80.1,994.6,339.1,0.3,1.1,85.8,0.00,24.0,26.5,"00:25:52",1
"23/08/07","00:40",0.0,27.6,80.5,994.8,8.9,0.3,1.3,64.1,0.00,24.0,26.5,"00:34:08",1
"23/08/07","00:50",0.0,27.7,80.6,994.8,145.6,0.3,1.4,132.9,0.00,24.1,26.4,"00:43:12",1
"23/08/07","01:00",0.0,27.8,80.5,995.1,40.4,0.5,1.3,90.5,0.00,24.2,26.4,"00:54:00",1
"23/08/07","01:10",0.0,27.9,80.1,995.1,64.3,0.7,2.1,166.0,0.00,24.2,26.2,"01:01:52",1
"23/08/07","01:20",0.0,27.8,80.7,994.8,92.6,1.0,2.1,116.4,0.00,24.2,26.3,"01:15:28",1
"23/08/07","01:30",0.0,27.2,82.4,994.8,32.4,0.7,1.6,47.7,0.00,24.0,26.4,"01:23:36",1
"23/08/07","01:40",0.0,26.8,83.5,994.6,329.0,0.8,2.4,345.4,0.00,23.8,26.4,"01:35:12",1
"23/08/07","01:50",0.0,26.4,84.5,994.6,305.4,0.7,1.3,331.2,0.00,23.6,26.3,"01:41:04",1
"23/08/07","02:00",0.0,26.3,85.2,994.8,287.7,0.5,0.9,317.2,0.00,23.7,26.4,"01:50:16",1
"23/08/07","02:10",0.0,26.3,85.6,994.8,325.6,0.6,1.4,339.9,0.00,23.7,26.3,"02:07:20",1
"23/08/07","02:20",0.0,26.3,86.4,995.1,304.2,0.8,1.8,295.2,0.00,23.9,26.2,"02:14:48",1
"23/08/07","02:30",0.0,26.3,86.7,995.6,321.9,0.8,1.6,327.0,0.00,23.9,26.2,"02:22:40",1
"23/08/07","02:40",0.0,26.3,87.0,994.8,341.2,1.0,1.4,0.1,0.00,24.0,26.2,"02:35:12",1
"23/08/07","02:50",0.0,26.4,87.2,995.1,325.6,0.8,1.2,351.7,0.00,24.1,26.1,"02:41:28",1
"23/08/07","03:00",0.0,26.3,87.3,995.1,307.2,0.6,1.0,340.6,0.00,24.1,26.1,"02:55:04",1
"23/08/07","03:10",0.0,26.3,87.6,994.8,319.2,0.7,1.6,341.8,0.00,24.1,26.2,"03:07:04",1
"23/08/07","03:20",0.0,26.3,87.9,995.3,328.3,1.0,1.3,336.2,0.00,24.2,26.0,"03:12:48",1
"23/08/07","03:30",0.0,26.3,88.1,995.3,343.3,0.7,1.8,11.2,0.00,24.2,26.1,"03:28:00",1
"23/08/07","03:40",0.0,26.4,88.0,995.3,5.3,0.5,1.8,105.3,0.00,24.3,25.9,"03:39:12",1
"23/08/07","03:50",0.0,26.5,87.7,995.1,3.6,0.6,1.4,147.3,0.00,24.3,25.9,"03:42:16",1
"23/08/07","04:00",0.0,26.5,87.3,995.3,342.3,1.1,1.9,356.5,0.00,24.3,26.2,"03:55:12",1
"23/08/07","04:10",0.0,26.5,87.1,995.1,324.2,0.7,1.2,350.2,0.00,24.2,26.0,"04:01:04",1
"23/08/07","04:20",0.0,26.4,87.0,995.3,329.8,0.8,1.2,348.1,0.00,24.1,26.1,"04:12:08",1
"23/08/07","04:30",0.0,26.3,87.0,994.8,296.7,0.6,1.3,331.6,0.00,24.0,26.0,"04:22:00",1
"23/08/07","04:40",0.0,26.2,87.0,995.3,318.0,0.6,1.3,325.5,0.00,23.9,26.0,"04:37:20",1
"23/08/07","04:50",0.0,26.2,87.0,995.3,316.2,0.5,1.0,320.7,0.00,23.9,25.9,"04:45:44",1
"23/08/07","05:00",0.0,26.2,86.9,995.8,316.4,0.6,1.8,330.8,0.00,23.9,26.2,"04:55:36",1
"23/08/07","05:10",0.0,26.3,86.8,996.0,22.6,0.3,1.2,112.3,0.00,24.0,26.0,"05:07:28",1
"23/08/07","05:20",0.0,26.4,86.3,996.0,57.6,0.5,1.2,301.8,0.00,24.0,25.7,"05:14:08",1
"23/08/07","05:30",0.0,26.6,85.7,996.0,0.4,0.6,1.1,347.8,0.00,24.0,25.9,"05:22:48",1
"23/08/07","05:40",0.0,26.7,85.0,996.3,357.4,0.7,1.7,326.9,0.00,24.0,25.9,"05:38:00",1
"23/08/07","05:50",0.0,26.8,84.4,996.3,336.7,0.5,1.4,340.1,0.00,24.0,26.0,"05:40:08",1
"23/08/07","06:00",0.0,27.0,83.8,996.5,31.0,0.6,1.3,322.1,0.00,24.1,25.8,"05:54:56",1
"23/08/07","06:10",0.0,27.2,83.2,996.0,7.3,0.5,1.0,82.8,0.01,24.1,25.9,"06:00:24",1
"23/08/07","06:20",0.0,27.3,82.9,996.3,349.4,0.5,1.1,332.0,0.02,24.2,25.9,"06:13:36",1
"23/08/07","06:30",0.0,27.3,82.6,996.3,141.4,0.3,1.0,326.5,0.02,24.1,25.9,"06:22:40",1
"23/08/07","06:40",0.0,27.5,81.5,996.3,108.1,0.6,1.6,155.0,0.02,24.1,26.0,"06:31:36",1
"23/08/07","06:50",0.0,27.7,80.6,996.5,90.0,0.7,2.0,133.5,0.03,24.1,25.9,"06:47:04",1
"23/08/07","07:00",0.0,28.0,79.4,996.5,119.2,0.8,2.7,81.6,0.04,24.1,26.0,"06:54:56",1
"23/08/07","07:10",0.0,28.2,78.5,996.3,59.6,0.6,1.6,150.5,0.04,24.1,25.7,"07:08:24",1
"23/08/07","07:20",0.0,28.3,77.7,996.3,29.8,0.6,1.4,28.9,0.04,24.1,25.9,"07:12:00",1
"23/08/07","07:30",0.0,28.3,77.5,996.3,45.9,0.7,2.2,108.0,0.04,24.0,25.9,"07:24:48",1
"23/08/07","07:40",0.0,28.5,76.9,996.5,81.9,0.8,2.1,14.4,0.05,24.1,25.8,"07:37:52",1
"23/08/07","07:50",0.0,28.7,76.1,996.7,68.8,0.7,2.7,102.4,0.06,24.1,25.9,"07:46:48",1
"23/08/07","08:00",0.0,28.8,75.2,996.5,89.3,1.1,2.7,22.9,0.06,24.0,25.8,"07:52:56",1
"23/08/07","08:10",0.0,28.8,75.2,996.7,96.5,1.0,2.5,109.0,0.02,24.0,26.0,"08:01:20",1
"23/08/07","08:20",0.0,28.8,75.0,996.5,100.9,1.0,2.2,139.3,0.06,24.0,26.0,"08:13:28",1
"23/08/07","08:30",0.0,28.9,74.4,996.5,98.7,1.1,2.8,102.1,0.05,23.9,25.9,"08:27:36",1
"23/08/07","08:40",0.0,29.1,74.1,996.3,112.1,1.0,2.8,81.3,0.06,24.1,25.7,"08:31:20",1
"23/08/07","08:50",0.0,29.2,73.7,996.0,104.1,1.1,2.5,118.7,0.04,24.1,25.8,"08:47:36",1
"23/08/07","09:00",0.0,29.4,73.5,996.0,103.2,1.1,2.2,125.0,0.05,24.2,25.8,"08:56:48",1
"23/08/07","09:10",0.0,29.6,73.2,995.8,116.2,1.3,3.3,139.1,0.07,24.3,25.9,"09:09:12",1
"23/08/07","09:20",0.0,29.8,72.6,996.3,110.2,1.0,2.8,129.1,0.08,24.4,26.0,"09:11:20",1
"23/08/07","09:30",0.0,29.7,71.9,996.3,100.6,1.3,3.2,105.6,0.05,24.1,26.0,"09:22:56",1
"23/08/07","09:40",0.0,29.8,71.7,996.5,140.5,1.5,3.1,136.7,0.04,24.2,26.1,"09:30:02",1
"23/08/07","09:50",0.0,29.9,71.3,996.5,137.3,1.3,2.7,95.4,0.05,24.2,26.2,"09:47:28",1
"23/08/07","10:00",0.0,30.4,71.0,996.3,114.7,1.0,3.2,111.1,0.12,24.6,26.1,"09:50:02",1
"23/08/07","10:10",0.0,30.6,69.0,996.7,101.1,1.5,3.5,130.9,0.13,24.3,26.0,"10:00:24",1
"23/08/07","10:20",0.0,30.7,68.9,996.7,94.9,1.5,3.2,45.2,0.12,24.4,26.0,"10:13:44",1
"23/08/07","10:30",0.0,30.6,68.9,996.5,108.7,1.2,2.6,150.3,0.11,24.3,26.1,"10:29:36",1
"23/08/07","10:40",0.0,30.8,69.4,996.7,67.5,1.1,2.5,129.8,0.14,24.6,26.3,"10:31:28",1
"23/08/07","10:50",0.0,30.9,69.3,997.0,104.6,1.0,2.5,121.1,0.09,24.7,26.0,"10:49:52",1
"23/08/07","11:00",0.0,30.9,68.1,996.7,96.1,1.3,3.5,78.7,0.12,24.4,26.1,"10:58:08",1
"23/08/07","11:10",0.0,30.9,66.9,997.0,142.8,2.0,3.9,174.6,0.14,24.1,26.0,"11:04:16",1
"23/08/07","11:20",0.0,30.8,67.6,996.7,112.9,1.5,4.1,142.1,0.10,24.1,26.0,"11:11:28",1
"23/08/07","11:30",0.0,30.4,69.7,996.5,95.6,1.3,3.1,86.2,0.08,24.3,26.2,"11:27:12",1
"23/08/07","11:40",0.0,30.8,70.2,996.7,92.1,1.1,2.8,132.7,0.16,24.8,26.3,"11:35:12",1
"23/08/07","11:50",0.0,31.0,68.6,996.7,87.7,1.1,2.5,109.2,0.13,24.6,26.4,"11:46:48",1
"23/08/07","12:00",0.0,31.0,68.6,996.7,88.1,1.3,4.3,113.0,0.12,24.6,26.1,"11:57:20",1
"23/08/07","12:10",0.0,30.9,68.8,997.0,86.4,1.1,2.6,66.6,0.09,24.5,26.3,"12:00:08",1
"23/08/07","12:20",0.0,30.6,70.6,996.0,82.1,1.2,3.1,44.5,0.08,24.7,26.4,"12:11:12",1
"23/08/07","12:30",0.0,30.3,72.2,996.5,91.1,1.7,3.4,102.4,0.11,24.8,26.4,"12:22:24",1
"23/08/07","12:40",0.0,29.6,76.2,996.0,86.5,1.6,5.1,141.9,0.10,25.0,26.3,"12:32:24",1
"23/08/07","12:50",0.0,29.2,78.2,996.0,80.3,1.2,3.2,99.7,0.11,25.0,26.4,"12:48:24",1
"23/08/07","13:00",0.0,29.2,79.1,995.8,75.7,1.0,2.4,88.1,0.10,25.2,26.4,"12:59:04",1
"23/08/07","13:10",0.0,29.3,79.0,995.8,54.3,0.7,2.0,29.9,0.10,25.3,26.3,"13:07:04",1
"23/08/07","13:20",0.0,29.3,78.2,996.0,84.3,1.1,2.6,87.1,0.09,25.1,26.4,"13:15:44",1
"23/08/07","13:30",0.0,29.4,77.1,996.3,116.6,1.6,4.0,131.6,0.11,25.0,26.5,"13:25:44",1
"23/08/07","13:40",0.0,29.7,77.3,996.3,72.2,1.2,3.7,92.2,0.15,25.3,26.3,"13:33:44",1
"23/08/07","13:50",0.0,29.8,77.1,995.8,92.8,1.1,2.7,98.9,0.17,25.4,26.3,"13:41:04",1
"23/08/07","14:00",0.0,30.0,76.6,996.5,113.9,1.1,2.6,166.8,0.16,25.5,26.5,"13:54:24",1
"23/08/07","14:10",0.0,30.1,75.4,996.5,79.1,1.1,2.4,125.0,0.16,25.3,26.5,"14:06:48",1
"23/08/07","14:20",0.0,30.2,74.4,996.5,108.9,1.3,4.2,130.9,0.17,25.2,26.6,"14:16:40",1
"23/08/07","14:30",0.0,30.4,73.6,996.3,99.3,1.3,3.4,97.8,0.17,25.2,26.6,"14:26:08",1
"23/08/07","14:40",0.0,30.3,73.5,996.3,97.7,1.2,3.4,132.1,0.14,25.1,26.5,"14:32:40",1
"23/08/07","14:50",0.0,30.2,73.9,995.8,94.7,1.2,3.4,72.8,0.14,25.1,26.4,"14:43:36",1
"23/08/07","15:00",0.0,30.2,74.3,996.0,100.7,0.8,2.7,89.1,0.13,25.2,26.6,"14:56:16",1
"23/08/07","15:10",0.0,30.4,73.5,996.0,107.5,1.0,2.2,92.1,0.15,25.2,26.7,"15:09:36",1
"23/08/07","15:20",0.0,30.3,72.7,996.3,93.0,1.3,4.0,118.0,0.12,24.9,26.4,"15:11:04",1
"23/08/07","15:30",0.0,30.9,72.1,996.3,92.7,1.1,3.3,157.5,0.19,25.3,26.7,"15:20:40",1
"23/08/07","15:40",0.0,30.9,71.6,996.5,96.8,1.1,3.6,92.9,0.14,25.2,26.7,"15:34:32",1
"23/08/07","15:50",0.0,30.8,71.3,996.3,109.3,1.2,3.2,124.0,0.15,25.0,26.7,"15:48:00",1
"23/08/07","16:00",0.0,30.9,71.2,996.5,111.2,1.3,2.6,101.6,0.12,25.1,26.7,"15:55:28",1
"23/08/07","16:10",0.0,30.6,71.7,996.3,90.3,1.3,2.8,87.7,0.09,24.9,26.7,"16:00:02",1
"23/08/07","16:20",0.0,30.5,72.3,995.8,94.7,1.3,3.2,71.4,0.09,25.0,26.9,"16:11:44",1
"23/08/07","16:30",0.0,30.4,72.1,995.8,85.0,1.2,3.4,93.3,0.08,24.8,27.0,"16:24:48",1
"23/08/07","16:40",0.0,30.5,71.6,996.0,111.8,1.5,4.1,135.4,0.11,24.8,26.8,"16:37:20",1
"23/08/07","16:50",0.0,30.6,70.8,995.8,88.6,1.5,3.3,113.6,0.09,24.7,26.6,"16:41:12",1
"23/08/07","17:00",0.0,30.6,70.3,995.8,91.1,1.3,3.9,90.4,0.07,24.6,26.8,"16:58:56",1
"23/08/07","17:10",0.0,30.5,70.5,995.8,113.5,1.5,2.8,26.5,0.07,24.6,26.6,"17:01:20",1
"23/08/07","17:20",0.0,30.4,70.5,995.8,103.9,1.2,3.3,151.0,0.06,24.5,26.8,"17:12:40",1
"23/08/07","17:30",0.0,30.3,70.9,996.0,104.3,1.3,3.1,87.9,0.05,24.5,26.7,"17:27:36",1
"23/08/07","17:40",0.0,30.1,71.1,995.6,107.3,1.1,4.1,106.1,0.03,24.3,26.7,"17:38:56",1
"23/08/07","17:50",0.0,30.0,71.8,995.8,87.5,1.2,3.1,78.6,0.01,24.4,26.8,"17:45:44",1
"23/08/07","18:00",0.0,29.7,72.8,995.6,109.4,1.2,2.9,131.8,0.01,24.3,26.8,"17:57:04",1
"23/08/07","18:10",0.0,29.6,73.7,995.8,84.3,1.2,3.2,82.5,0.00,24.4,26.8,"18:03:44",1
"23/08/07","18:20",0.0,29.5,74.1,995.6,110.9,1.5,3.4,81.3,0.00,24.4,26.7,"18:10:02",1
"23/08/07","18:30",0.0,29.4,74.7,995.6,114.7,1.1,2.9,134.2,0.00,24.5,26.5,"18:25:04",1
"23/08/07","18:40",0.0,29.2,75.4,995.8,106.9,1.1,2.7,129.4,0.00,24.4,26.8,"18:33:20",1
"23/08/07","18:50",0.0,29.1,76.0,995.6,99.0,1.2,3.3,112.2,0.00,24.5,26.8,"18:43:36",1
"23/08/07","19:00",0.0,28.9,76.7,996.3,112.8,1.3,2.9,99.6,0.00,24.4,26.7,"18:52:16",1
"23/08/07","19:10",0.0,28.8,77.2,996.5,105.5,1.2,4.2,114.8,0.00,24.4,26.6,"19:05:04",1
"23/08/07","19:20",0.0,28.7,77.7,996.5,84.2,1.0,2.7,134.1,0.00,24.5,26.6,"19:10:02",1
"23/08/07","19:30",0.0,28.8,78.0,996.7,88.7,1.1,2.5,95.6,0.00,24.6,26.7,"19:20:16",1
"23/08/07","19:40",0.0,28.7,77.9,996.7,106.0,1.1,2.2,90.2,0.00,24.5,26.5,"19:30:16",1
"23/08/07","19:50",0.0,28.6,77.9,997.2,118.4,1.2,2.9,80.2,0.00,24.4,26.3,"19:46:00",1
"23/08/07","20:00",0.0,28.7,77.3,996.7,100.2,1.2,3.5,164.8,0.00,24.4,26.5,"19:56:08",1
"23/08/07","20:10",0.0,28.6,77.6,997.0,60.5,1.0,3.1,47.7,0.00,24.3,26.5,"20:08:40",1
"23/08/07","20:20",0.0,28.5,78.3,997.2,114.4,0.7,1.9,121.0,0.00,24.4,26.5,"20:10:40",1
"23/08/07","20:30",0.0,28.3,78.6,997.2,116.6,1.1,2.7,53.8,0.00,24.3,26.4,"20:28:16",1
"23/08/07","20:40",0.0,28.2,78.9,997.2,111.3,1.1,2.8,77.6,0.00,24.2,26.4,"20:37:44",1
"23/08/07","20:50",0.0,28.2,79.1,997.7,109.9,1.0,2.6,116.9,0.00,24.3,26.3,"20:43:28",1
"23/08/07","21:00",0.0,28.2,79.2,997.2,128.0,1.0,2.2,106.8,0.00,24.3,26.3,"20:51:12",1
"23/08/07","21:10",0.0,28.2,79.6,997.7,131.5,1.1,3.1,143.5,0.00,24.4,26.3,"21:01:04",1
"23/08/07","21:20",0.0,27.9,80.6,997.7,100.8,1.0,3.5,129.6,0.00,24.3,26.3,"21:18:40",1
"23/08/07","21:30",0.0,27.9,81.2,997.9,84.5,1.0,2.8,97.4,0.00,24.4,26.3,"21:24:48",1
"23/08/07","21:40",0.0,27.9,81.2,998.2,112.5,1.1,3.3,111.1,0.00,24.4,26.2,"21:31:52",1
"23/08/07","21:50",0.0,27.9,81.6,997.9,100.7,0.8,1.9,65.1,0.00,24.5,26.3,"21:42:32",1
"23/08/07","22:00",0.0,27.8,81.9,997.7,88.6,1.0,2.4,130.9,0.00,24.5,26.2,"21:55:20",1
"23/08/07","22:10",0.0,27.8,81.9,997.7,68.8,1.0,2.5,108.4,0.00,24.5,26.0,"22:02:24",1
"23/08/07","22:20",0.0,27.7,81.5,997.9,102.5,1.0,2.5,117.7,0.00,24.3,26.4,"22:16:24",1
"23/08/07","22:30",0.0,27.8,81.1,998.4,81.8,1.0,2.1,86.2,0.00,24.3,26.1,"22:22:24",1
"23/08/07","22:40",0.0,27.8,81.1,997.7,83.7,1.0,2.6,79.7,0.00,24.3,26.2,"22:39:20",1
"23/08/07","22:50",0.0,27.7,81.5,997.9,75.7,0.7,2.4,120.1,0.00,24.3,25.8,"22:47:12",1
"23/08/07","23:00",0.0,27.7,81.7,997.7,46.4,0.8,2.9,113.7,0.00,24.3,26.0,"22:53:20",1
"23/08/07","23:10",0.0,27.7,82.0,997.7,57.9,0.7,2.6,51.5,0.00,24.4,26.2,"23:06:40",1
"23/08/07","23:20",0.0,27.6,82.6,997.7,89.5,1.1,2.5,149.5,0.00,24.4,26.2,"23:10:56",1
"23/08/07","23:30",0.0,27.4,83.4,997.7,90.1,1.0,2.0,120.5,0.00,24.4,26.1,"23:26:40",1
"23/08/07","23:40",0.0,27.3,84.0,997.9,38.9,0.5,2.4,111.4,0.00,24.4,26.0,"23:32:40",1
"23/08/07","23:50",0.0,27.2,84.5,997.7,80.8,0.5,1.6,99.1,0.00,24.4,26.1,"23:44:40",1
"23/08/07","24:00",0.0,27.2,84.6,997.4,15.1,0.3,1.2,347.5,0.00,24.4,26.0,"23:50:08",1
